#timestamp,LO_Frequency,Hit,StdDev 
1557997215.1,286046999.1,N
1557997235.9,286046998.4,N
1557997255.7,286047001.0,N
1557997275.5,286046998.6,N
1557997295.4,286046998.4,N
1557997315.2,286047001.0,N
1557997335.0,286046998.3,N
1557997335.9,286046998.3,N
1557997355.8,286046998.8,N
1557997375.6,286046996.8,N
1557997395.4,286046997.4,N
1557997415.3,286046996.6,N
1557997435.1,286046997.4,N
1557997455.9,286046995.5,N
1557997475.7,286046995.8,N
1557997495.5,286046995.7,N
1557997515.4,286046995.9,N
1557997535.2,286046995.9,N
1557997555.1,286046995.6,N
1557997556.0,286046995.6,N
1557997575.8,286046997.9,N
1557997595.6,286046996.7,N
1557997615.5,286046997.0,N
1557997635.3,286046998.6,N
1557997655.1,286046999.5,N
1557997675.9,286047001.1,N
1557997695.7,286046999.3,N
1557997715.6,286046997.2,N
1557997735.4,286046996.5,N
1557997755.2,286046998.1,N
1557997775.1,286047001.2,N
1557997776.0,286047001.2,N
1557997795.8,286047001.2,N
1557997815.7,286046999.4,N
1557997835.5,286046999.0,N
1557997855.3,286046997.3,N
1557997875.2,286046996.7,N
1557997895.9,286046999.1,N
1557997915.7,286046999.4,N
1557997935.6,286046999.5,N
1557997955.4,286046997.5,N
1557997975.2,286046997.8,N
1557997995.1,286046997.0,N
1557997996.0,286046997.0,N
1557998015.8,286046996.7,N
1557998035.7,286046996.5,N
1557998055.5,286046998.9,N
1557998075.3,286047001.2,N
1557998095.2,286046998.4,N
1557998115.0,286046997.1,N
1557998115.9,286046997.1,N
1557998135.7,286046997.9,N
1557998155.6,286046995.2,Y
1557998175.4,286046997.4,P
1557998195.3,286047011.9,P
1557998215.1,286046997.0,N
1557998216.0,286046997.0,N
1557998235.8,286046998.7,N
1557998255.7,286047002.6,N
1557998275.5,286047002.8,N
1557998295.4,286047002.4,N
1557998315.2,286046999.8,N
1557998335.0,286047002.2,N
1557998335.9,286047002.2,N
1557998355.8,286046998.3,N
1557998375.6,286047000.1,N
1557998395.4,286047001.6,N
1557998415.3,286047002.8,N
1557998435.1,286047002.8,N
1557998455.9,286047001.2,N
1557998475.7,286047001.7,N
1557998495.5,286047002.8,N
1557998515.4,286047000.1,N
1557998535.2,286047000.6,N
1557998555.0,286047000.0,N
1557998555.9,286047000.0,N
1557998575.8,286047000.5,N
1557998595.6,286047001.5,N
1557998615.5,286047002.4,N
1557998635.3,286047001.2,N
1557998655.1,286046999.3,N
1557998675.9,286047001.2,N
1557998695.7,286046998.8,N
1557998715.6,286046999.6,N
1557998735.4,286046997.5,N
1557998755.2,286046999.2,N
1557998775.1,286046996.9,N
1557998776.0,286046996.9,N
1557998795.8,286046998.1,N
1557998815.6,286046999.3,N
1557998835.5,286046999.6,N
1557998855.1,286047001.1,N
1557998875.9,286046998.1,N
1557998895.7,286046998.7,N
1557998915.5,286047001.2,N
1557998935.4,286046998.3,N
1557998955.2,286047000.3,N
1557998975.1,286046999.8,N
1557998976.0,286046999.8,N
1557998995.8,286047002.4,N
1557999015.6,286047001.2,N
1557999035.5,286047000.4,N
1557999055.3,286047000.4,N
1557999075.1,286047001.9,N
1557999095.9,286047002.2,N
1557999115.7,286047001.7,N
1557999135.6,286047001.4,N
1557999155.4,286047003.6,N
1557999175.2,286047003.2,N
1557999195.1,286047005.2,N
1557999196.0,286047005.2,N
1557999215.8,286047005.1,N
1557999235.6,286047005.5,N
1557999255.5,286047003.2,N
1557999275.3,286047001.8,N
1557999295.2,286047001.5,N
1557999315.9,286047000.1,N
1557999335.7,286047000.8,N
1557999355.6,286047002.0,N
1557999375.4,286047001.9,N
1557999395.2,286047001.0,N
1557999415.1,286047000.4,N
1557999416.0,286047000.4,N
1557999435.8,286047000.7,N
1557999455.7,286047000.6,N
1557999475.5,286047002.6,N
1557999495.3,286047004.0,N
1557999515.2,286047004.4,N
1557999535.0,286047004.4,N
1557999535.9,286047004.4,N
1557999555.8,286047002.0,N
1557999575.6,286047001.2,N
1557999595.4,286047001.2,N
1557999615.3,286046999.5,N
1557999635.1,286047001.1,N
1557999655.8,286047003.8,N
1557999675.7,286047004.1,N
1557999695.5,286047001.9,N
1557999715.4,286047002.2,N
1557999735.2,286047001.8,N
1557999755.0,286047001.7,N
1557999755.9,286047001.7,N
1557999775.8,286047002.9,N
1557999795.7,286047007.4,Y
1557999815.5,286047003.7,P
1557999835.3,286047003.9,P
1557999855.2,286047001.3,N
1557999875.9,286047001.4,N
1557999895.7,286047001.5,N
1557999915.6,286047002.0,N
1557999935.4,286047001.4,N
1557999955.3,286047002.4,N
1557999975.1,286046999.8,N
1557999976.0,286046999.8,N
1557999995.8,286047000.4,N
1558000015.7,286047001.2,N
1558000035.5,286047000.4,N
1558000055.3,286047001.0,N
1558000075.2,286047002.6,N
1558000095.0,286047002.6,N
1558000095.9,286047002.6,N
1558000115.8,286047002.7,N
1558000135.6,286047000.3,N
1558000155.4,286047000.4,N
1558000175.3,286047000.4,N
1558000195.1,286046999.9,N
1558000215.9,286047000.9,N
1558000235.7,286047000.8,N
1558000255.5,286047000.8,N
1558000275.4,286047000.9,N
1558000295.2,286047000.1,N
1558000315.1,286047000.4,N
1558000316.0,286047000.4,N
1558000335.8,286046998.3,N
1558000355.6,286047001.1,N
1558000375.5,286046998.3,N
1558000395.3,286046997.0,N
1558000415.2,286046997.0,N
1558000435.0,286046996.6,N
1558000435.9,286046996.6,N
1558000455.7,286046996.5,N
1558000475.6,286046997.7,N
1558000495.4,286046996.9,N
1558000515.3,286046999.4,N
1558000535.1,286046997.1,N
1558000536.0,286046997.1,N
1558000555.8,286046996.6,N
1558000575.7,286046999.0,N
1558000595.5,286047000.8,N
1558000615.3,286046998.2,N
1558000635.2,286046998.7,N
1558000655.0,286046996.6,N
1558000655.9,286046996.6,N
1558000675.8,286046996.5,N
1558000695.6,286046997.4,N
1558000715.4,286046997.6,N
1558000735.3,286046997.0,N
1558000755.1,286046997.9,N
1558000775.9,286046997.8,N
1558000795.7,286046995.0,Y
